[[{"header":{"parameterUnit":"m.s-1","parameterCategory":1,"la1":30.2991,"la2":30.254,"lo1":-89.0895,"lo2":-89.0444,"dy":0.0017,"dx":0.0017,"nx":28,"ny":28,"refTime":"2025-08-17T21:00:00:Z","depth":0,"parameterNumber":2,"parameterNumberName":"U-component_of_WINDS"},"data":[0,0,0,0,0,0,0,0,0,0,0,0,0,0,0,0,0,0,0,0,0,0,0,0,0,0,0,0,0,0,0,0,0,0,0,0,0,0,0,0,0,0,0,0,0,0,0,0,0,0,0,0,0,0,0,0,0,0,0.0835,0.0835,0,0.0894,0.0894,0.0895,0.0939,0.0939,0.094,0.094,0.0999,0.1,0.1001,0,0,0,0,0,0,0,0,0,0,0,0,0,0.0759,0.076,0.0834,0.0835,0.0836,0.0894,0.0894,0.0895,0.0939,0.0939,0.094,0.094,0.0999,0.1,0.1001,0,0,0,0,0,0,0,0,0,0,0,0,0,0.0802,0.0761,0.0834,0.0865,0.0868,0.0893,0.0894,0.0895,0.0939,0.0939,0.094,0.094,0.0998,0.1,0.1002,0.1001,0,0,0.1007,0.1008,0,0,0,0,0,0,0,0,0.08,0.0805,0.0859,0.0863,0.0866,0.0909,0.0889,0.0931,0.0938,0.0912,0.094,0.0941,0.0969,0.0973,0.0983,0.1004,0.1006,0.1007,0.1008,0.1009,0.101,0,0,0,0,0,0,0,0.0797,0.0803,0.0858,0.086,0.0864,0.0875,0.0882,0.0897,0.0936,0.0914,0.0917,0.0924,0.0971,0.0981,0.0984,0.1007,0.1007,0.1009,0.101,0.1011,0.1033,0.1032,0,0,0,0,0,0,0.0789,0.08,0.0856,0.086,0.0834,0.0876,0.0884,0.0895,0.0936,0.0943,0.0923,0.0926,0.0977,0.0982,0.0987,0.0989,0.1009,0.1011,0.1012,0.1033,0.1032,0.1032,0,0,0,0,0,0,0.0787,0.0794,0.0854,0.0831,0.0839,0.0877,0.0889,0.0896,0.0906,0.0943,0.095,0.0927,0.0978,0.0984,0.0998,0.0992,0.1012,0.1013,0.1034,0.1033,0.1032,0.0994,0,0,0,0,0,0,0.0785,0.0793,0.0793,0.083,0.084,0.0863,0.0889,0.0897,0.0909,0.0913,0.0948,0.0954,0.0979,0.0995,0.0999,0.0995,0.1015,0.1034,0.1033,0.1032,0.0996,0.0992,0.0989,0,0,0,0,0,0.0782,0.0779,0.0793,0.0799,0.0841,0.0863,0.0869,0.0897,0.0909,0.0909,0.0933,0.0953,0.0992,0.0996,0.1001,0.0997,0.1035,0.1034,0.1032,0.0997,0.0993,0.0989,0,0,0,0,0,0,0.0739,0.0784,0.08,0.0809,0.0832,0.087,0.0871,0.0891,0.0911,0.0913,0.0948,0.0955,0.0965,0.0983,0.0986,0.1,0.1016,0.1016,0.0987,0.0983,0.098,0.0975,0.1016,0,0,0,0,0,0.073,0.0745,0.0784,0.0788,0.0799,0.0833,0.0844,0.0864,0.0889,0.0899,0.0924,0.0947,0.0964,0.0975,0.0993,0.0999,0.1008,0.0999,0.0996,0.0993,0.0992,0.0997,0.0994,0.1028,0.1028,0.1028,0,0,0.0713,0.074,0.0746,0.078,0.08,0.0814,0.0841,0.0854,0.0865,0.0901,0.0915,0.0934,0.0963,0.0973,0.0978,0.0987,0.0984,0.0991,0.0988,0.0989,0.0995,0.0992,0.0989,0.1027,0.1027,0.1028,0,0,0.0688,0.071,0.0716,0.0736,0.0767,0.079,0.0792,0.0828,0.0842,0.0857,0.0885,0.0898,0.0928,0.0947,0.096,0.0945,0.0964,0.095,0.0931,0.0935,0.0933,0.093,0.0925,0.0922,0.0949,0.0949,0.0949,0,0.0662,0.0684,0.0717,0.0729,0.0743,0.0777,0.0784,0.0802,0.0836,0.0846,0.0856,0.0894,0.0916,0.0931,0.0927,0.0937,0.094,0.0945,0.0931,0.0929,0.0927,0.0922,0.092,0.0947,0.0948,0.0948,0.0948,0,0.0651,0.0666,0.0667,0.0701,0.0716,0.0725,0.0759,0.077,0.079,0.0812,0.0828,0.0855,0.088,0.0885,0.0904,0.0903,0.0908,0.0924,0.0941,0.0921,0.0917,0.0915,0.0944,0.0945,0.0946,0.0946,0,0,0.0598,0.0651,0.0651,0.0667,0.0705,0.0717,0.0728,0.0753,0.0762,0.0785,0.0796,0.0821,0.0836,0.0852,0.0873,0.0878,0.0864,0.0893,0.0894,0.0886,0.0866,0.0853,0.085,0.0878,0.0878,0.0878,0.0863,0,0.0578,0.0601,0.0631,0.0643,0.0658,0.0692,0.0702,0.0726,0.0748,0.0764,0.0788,0.0805,0.0824,0.0834,0.084,0.0864,0.086,0.0866,0.0888,0.0888,0.0878,0.0848,0.0834,0.0819,0.0862,0.0861,0.0861,0,0.0558,0.058,0.0594,0.0632,0.0639,0.0647,0.0673,0.0688,0.0717,0.0732,0.075,0.0775,0.0789,0.0805,0.0825,0.0828,0.0839,0.0853,0.0853,0.0855,0.0872,0.0848,0.0815,0.0812,0.0859,0.0859,0.086,0,0.0517,0.0551,0.0564,0.0577,0.0621,0.0626,0.0645,0.0674,0.0688,0.0711,0.072,0.0744,0.0757,0.0775,0.0805,0.0814,0.0822,0.0841,0.0835,0.0834,0.0834,0.0833,0.08,0.0842,0.0843,0.0843,0.0843,0,0.0491,0.0498,0.0547,0.0554,0.0564,0.0599,0.0607,0.0629,0.0655,0.0668,0.0699,0.0711,0.075,0.0766,0.079,0.0803,0.0809,0.0822,0.0828,0.0818,0.0817,0.0825,0.0826,0.0842,0.0842,0.0842,0.0842,0,0.0447,0.048,0.0496,0.0537,0.0548,0.0553,0.0588,0.0597,0.0622,0.0637,0.0643,0.0681,0.0702,0.0735,0.0765,0.0781,0.079,0.08,0.078,0.0783,0.0776,0.0775,0.0746,0.0744,0.0788,0.0787,0.0787,0,0.0427,0.0434,0.0476,0.0487,0.0505,0.0523,0.0537,0.0573,0.0587,0.0621,0.0626,0.065,0.067,0.0702,0.0732,0.0755,0.0766,0.0755,0.077,0.076,0.0765,0.0764,0.0765,0.075,0.0749,0.0749,0.0749,0,0.0389,0.0406,0.0426,0.0452,0.0468,0.049,0.0514,0.0521,0.0563,0.0576,0.0599,0.0615,0.0646,0.0669,0.0697,0.0717,0.0739,0.0744,0.0744,0.0733,0.0721,0.0727,0.0769,0.0744,0.0744,0.0745,0.0745,0.0745,0.0356,0.0364,0.0396,0.0417,0.0439,0.0461,0.0471,0.0498,0.0517,0.0546,0.0567,0.0587,0.0617,0.0658,0.0676,0.0693,0.0703,0.0703,0.0702,0.0701,0.0698,0.072,0.0698,0.0699,0.0699,0.0699,0.0699,0,0.032,0.0342,0.0362,0.0394,0.0411,0.0433,0.0461,0.0473,0.0492,0.0518,0.0538,0.0564,0.0587,0.062,0.0645,0.0653,0.0664,0.0658,0.0657,0.0661,0.0688,0.0685,0.0649,0.0649,0.0649,0.0649,0.0649,0.0649,0.0302,0.0316,0.0337,0.0363,0.0385,0.0407,0.0421,0.0441,0.0462,0.049,0.051,0.0531,0.0561,0.0589,0.0611,0.062,0.0628,0.0619,0.0631,0.0655,0.0659,0.0664,0.0661,0.062,0.062,0.0603,0.0603,0.0603]},{"header":{"parameterUnit":"m.s-1","parameterCategory":1,"la1":30.2991,"la2":30.254,"lo1":-89.0895,"lo2":-89.0444,"dy":0.0017,"dx":0.0017,"nx":28,"ny":28,"refTime":"2025-08-17T21:00:00:Z","depth":0,"parameterNumber":3,"parameterNumberName":"V-component_of_WINDS"},"data":[0,0,0,0,0,0,0,0,0,0,0,0,0,0,0,0,0,0,0,0,0,0,0,0,0,0,0,0,0,0,0,0,0,0,0,0,0,0,0,0,0,0,0,0,0,0,0,0,0,0,0,0,0,0,0,0,0,0,-1.7505,-1.7505,0,-1.7543,-1.7544,-1.7544,-1.7554,-1.7553,-1.7553,-1.7553,-1.759,-1.7591,-1.7592,0,0,0,0,0,0,0,0,0,0,0,0,0,-1.7439,-1.744,-1.7505,-1.7505,-1.7506,-1.7543,-1.7544,-1.7544,-1.7554,-1.7553,-1.7553,-1.7553,-1.759,-1.7591,-1.7592,0,0,0,0,0,0,0,0,0,0,0,0,0,-1.7471,-1.744,-1.7505,-1.7515,-1.7517,-1.7543,-1.7544,-1.7544,-1.7554,-1.7553,-1.7553,-1.7553,-1.7589,-1.7591,-1.7593,-1.7611,0,0,-1.7598,-1.7599,0,0,0,0,0,0,0,0,-1.7469,-1.7474,-1.7513,-1.7515,-1.7516,-1.7543,-1.7534,-1.7567,-1.7554,-1.754,-1.7553,-1.7553,-1.7575,-1.7578,-1.7585,-1.7613,-1.7614,-1.7598,-1.7599,-1.76,-1.7601,0,0,0,0,0,0,0,-1.7467,-1.7472,-1.752,-1.7514,-1.7516,-1.7517,-1.7522,-1.754,-1.7559,-1.7541,-1.7542,-1.7546,-1.7575,-1.7584,-1.7586,-1.7615,-1.7598,-1.76,-1.7601,-1.7602,-1.766,-1.766,0,0,0,0,0,0,-1.7463,-1.747,-1.7519,-1.7521,-1.7491,-1.7519,-1.7524,-1.7535,-1.7558,-1.7562,-1.7546,-1.7546,-1.7581,-1.7584,-1.7588,-1.7611,-1.76,-1.7602,-1.7603,-1.7659,-1.766,-1.766,0,0,0,0,0,0,-1.7462,-1.7468,-1.7517,-1.7496,-1.7502,-1.7521,-1.7533,-1.7536,-1.7544,-1.7563,-1.7566,-1.7552,-1.7581,-1.7585,-1.7605,-1.7612,-1.7603,-1.7604,-1.7659,-1.7659,-1.766,-1.7657,0,0,0,0,0,0,-1.746,-1.7467,-1.7474,-1.7496,-1.7504,-1.7535,-1.7534,-1.7537,-1.7548,-1.7548,-1.7568,-1.7571,-1.7581,-1.7603,-1.7607,-1.7615,-1.7606,-1.7658,-1.7659,-1.766,-1.7657,-1.7658,-1.7658,0,0,0,0,0,-1.7458,-1.7472,-1.7475,-1.7481,-1.7513,-1.7535,-1.7539,-1.755,-1.7548,-1.7556,-1.7568,-1.7571,-1.7611,-1.7605,-1.761,-1.7618,-1.7658,-1.7659,-1.766,-1.7656,-1.7657,-1.7658,0,0,0,0,0,0,-1.7449,-1.7475,-1.7478,-1.75,-1.7515,-1.7537,-1.7546,-1.7551,-1.7567,-1.7566,-1.7579,-1.7583,-1.7603,-1.7612,-1.7605,-1.7637,-1.7634,-1.7636,-1.763,-1.7631,-1.7632,-1.7629,-1.7607,0,0,0,0,0,-1.745,-1.7466,-1.7487,-1.7504,-1.7512,-1.7528,-1.7538,-1.7545,-1.7561,-1.7567,-1.7581,-1.7596,-1.7612,-1.7622,-1.7638,-1.7659,-1.7663,-1.7667,-1.7668,-1.7668,-1.7669,-1.7681,-1.7683,-1.7663,-1.7663,-1.7663,0,0,-1.7451,-1.7467,-1.7477,-1.7503,-1.7516,-1.7532,-1.7533,-1.755,-1.7562,-1.757,-1.759,-1.76,-1.7618,-1.7638,-1.7648,-1.7647,-1.7676,-1.7669,-1.767,-1.7671,-1.7682,-1.7684,-1.7686,-1.7664,-1.7664,-1.7664,0,0,-1.7462,-1.7476,-1.7492,-1.7505,-1.7525,-1.7536,-1.7539,-1.756,-1.7568,-1.7588,-1.7595,-1.7609,-1.7637,-1.7649,-1.7659,-1.7676,-1.7679,-1.7681,-1.7685,-1.7696,-1.7698,-1.7699,-1.7705,-1.7707,-1.7682,-1.7682,-1.7682,0,-1.7461,-1.7486,-1.7499,-1.7516,-1.7527,-1.7537,-1.7552,-1.7564,-1.7588,-1.7595,-1.7594,-1.763,-1.7642,-1.7666,-1.767,-1.7678,-1.7682,-1.7678,-1.7697,-1.7698,-1.77,-1.7705,-1.7707,-1.7682,-1.7682,-1.7682,-1.7682,0,-1.7484,-1.7501,-1.7512,-1.7535,-1.7548,-1.7564,-1.7579,-1.759,-1.7597,-1.7607,-1.7628,-1.7644,-1.7663,-1.767,-1.7676,-1.7694,-1.7693,-1.7694,-1.7691,-1.7701,-1.7707,-1.7709,-1.7682,-1.7682,-1.7682,-1.7682,0,0,-1.7489,-1.7521,-1.7524,-1.7535,-1.7559,-1.7572,-1.7589,-1.7608,-1.7618,-1.7634,-1.7648,-1.7672,-1.7673,-1.7684,-1.7692,-1.7702,-1.7714,-1.7702,-1.7703,-1.7703,-1.7736,-1.7734,-1.7736,-1.7717,-1.7718,-1.7718,-1.7734,0,-1.7503,-1.7533,-1.7546,-1.7571,-1.7587,-1.7596,-1.7611,-1.7627,-1.7637,-1.7652,-1.7664,-1.768,-1.7681,-1.7688,-1.7698,-1.7711,-1.7721,-1.771,-1.773,-1.7731,-1.7724,-1.7739,-1.7738,-1.7751,-1.7736,-1.7737,-1.7737,0,-1.7522,-1.754,-1.7566,-1.7588,-1.7595,-1.7608,-1.7627,-1.7642,-1.7659,-1.7667,-1.768,-1.7687,-1.7705,-1.7702,-1.7726,-1.7719,-1.7728,-1.7735,-1.7736,-1.7738,-1.7734,-1.7741,-1.7756,-1.7758,-1.774,-1.774,-1.774,0,-1.7523,-1.7553,-1.7573,-1.7582,-1.7608,-1.7617,-1.7628,-1.7646,-1.7657,-1.7674,-1.7681,-1.77,-1.771,-1.7724,-1.7736,-1.7733,-1.7759,-1.7757,-1.7765,-1.7765,-1.7769,-1.7769,-1.7786,-1.7777,-1.7777,-1.7776,-1.7776,0,-1.7536,-1.7552,-1.7574,-1.7586,-1.7604,-1.7618,-1.7635,-1.7647,-1.7663,-1.7677,-1.7687,-1.77,-1.7716,-1.7731,-1.7741,-1.7759,-1.7764,-1.777,-1.7772,-1.7768,-1.7767,-1.7774,-1.7773,-1.7777,-1.7777,-1.7777,-1.7777,0,-1.7539,-1.7555,-1.7577,-1.76,-1.7607,-1.7619,-1.7638,-1.765,-1.7662,-1.768,-1.7685,-1.7703,-1.7722,-1.7736,-1.7759,-1.7766,-1.7785,-1.7788,-1.7779,-1.7781,-1.7787,-1.7786,-1.7809,-1.7812,-1.7801,-1.7801,-1.7801,0,-1.7546,-1.7559,-1.7584,-1.7595,-1.7606,-1.7623,-1.7635,-1.765,-1.7661,-1.7683,-1.7693,-1.7712,-1.7728,-1.7757,-1.7772,-1.779,-1.7793,-1.78,-1.7795,-1.7792,-1.7792,-1.7791,-1.7792,-1.78,-1.78,-1.78,-1.78,0,-1.7557,-1.7564,-1.7582,-1.7602,-1.7616,-1.7632,-1.7648,-1.7656,-1.7674,-1.7687,-1.7706,-1.7719,-1.7744,-1.7762,-1.7782,-1.7793,-1.7799,-1.7801,-1.7804,-1.78,-1.7794,-1.7797,-1.778,-1.78,-1.78,-1.78,-1.78,-1.78,-1.7562,-1.7574,-1.7594,-1.7612,-1.7627,-1.7642,-1.7654,-1.7668,-1.7685,-1.7706,-1.7714,-1.7734,-1.7752,-1.778,-1.7791,-1.7807,-1.7807,-1.7811,-1.7812,-1.7812,-1.7812,-1.7793,-1.781,-1.781,-1.781,-1.781,-1.781,0,-1.7573,-1.7587,-1.7604,-1.7627,-1.7642,-1.7647,-1.7666,-1.7678,-1.7695,-1.7712,-1.7728,-1.775,-1.7769,-1.7786,-1.7805,-1.7814,-1.7818,-1.7819,-1.7818,-1.782,-1.7811,-1.7806,-1.7816,-1.7816,-1.7816,-1.7816,-1.7816,-1.7816,-1.7581,-1.7601,-1.761,-1.7637,-1.7651,-1.7671,-1.7681,-1.7695,-1.7708,-1.7733,-1.7749,-1.776,-1.7777,-1.7798,-1.7815,-1.782,-1.7826,-1.7826,-1.7831,-1.7822,-1.7821,-1.782,-1.7816,-1.7828,-1.7828,-1.784,-1.784,-1.784]}]]